2023/10/10 00:00:00, 2.8,16.1
2023/10/10 00:10:00, 3.1,16.0
2023/10/10 00:20:00, 3.4,16.5
2023/10/10 00:30:00, 3.4,16.5
2023/10/10 00:40:00, 3.6,16.7
2023/10/10 00:50:00, 3.3,16.5
2023/10/10 01:00:00, 2.6,16.4
2023/10/10 01:10:00, 2.3,16.5
2023/10/10 01:20:00, 2.4,16.2
2023/10/10 01:30:00, 2.4,16.3
2023/10/10 01:40:00, 2.4,15.9
2023/10/10 01:50:00, 2.2,16.0
2023/10/10 02:00:00, 2.3,15.9
2023/10/10 02:10:00, 2.2,15.4
2023/10/10 02:20:00, 2.1,15.9
2023/10/10 02:30:00, 2.1,15.7
2023/10/10 02:40:00, 2.0,15.7
2023/10/10 02:50:00, 2.1,15.8
2023/10/10 03:00:00, 2.1,15.8
2023/10/10 03:10:00, 2.0,15.9
2023/10/10 03:20:00, 2.0,15.7
2023/10/10 03:30:00, 2.0,15.6
2023/10/10 03:40:00, 2.0,15.6
2023/10/10 03:50:00, 2.0,15.8
2023/10/10 04:00:00, 1.9,16.2
2023/10/10 04:10:00, 1.8,16.5
2023/10/10 04:20:00, 1.8,16.5
2023/10/10 04:30:00, 1.9,16.6
2023/10/10 04:40:00, 1.8,16.3
2023/10/10 04:50:00, 1.7,16.4
2023/10/10 05:00:00, 1.7,16.5
2023/10/10 05:10:00, 1.5,16.7
2023/10/10 05:20:00, 1.5,16.3
2023/10/10 05:30:00, 1.5,16.3
2023/10/10 05:40:00, 1.5,16.3
2023/10/10 05:50:00, 1.5,16.7
2023/10/10 06:00:00, 1.5,16.8
2023/10/10 06:10:00, 1.4,16.8
2023/10/10 06:20:00, 1.4,16.7
2023/10/10 06:30:00, 1.4,16.8
2023/10/10 06:40:00, 1.3,16.8
2023/10/10 06:50:00, 1.3,16.8
2023/10/10 07:00:00, 1.3,16.8
2023/10/10 07:10:00, 1.3,17.3
2023/10/10 07:20:00, 1.2,18.4
2023/10/10 07:30:00, 1.1,18.5
2023/10/10 07:40:00, 0.8,16.8
2023/10/10 07:50:00, 0.4,16.0
2023/10/10 08:00:00, 0.4,15.5
2023/10/10 08:10:00, 0.3,15.6
2023/10/10 08:20:00, 0.4,16.3
2023/10/10 08:30:00, 0.4,17.1
2023/10/10 08:40:00, 0.4,20.4
2023/10/10 08:50:00, 0.4,17.5
2023/10/10 09:00:00, 0.5,16.8
2023/10/10 09:10:00, 0.3,16.8
2023/10/10 09:20:00, 0.3,16.9
2023/10/10 09:30:00, 0.5,16.7
2023/10/10 09:40:00, 0.5,16.4
2023/10/10 09:50:00, 0.4,16.4
2023/10/10 10:00:00, 0.5,16.8
2023/10/10 10:10:00, 0.4,16.6
2023/10/10 10:20:00, 0.4,16.8
2023/10/10 10:30:00, 0.4,17.2
2023/10/10 10:40:00, 0.4,17.1
2023/10/10 10:50:00, 0.3,17.2
2023/10/10 11:00:00, 0.3,19.0
2023/10/10 11:10:00, 0.4,20.4
2023/10/10 11:20:00, 0.4,20.2
2023/10/10 11:30:00, 0.4,20.8
2023/10/10 11:40:00, 0.3,21.6
2023/10/10 11:50:00, 0.3,20.2
2023/10/10 12:00:00, 0.4,21.0
2023/10/10 12:10:00, 0.3,22.6
2023/10/10 12:20:00, 0.3,23.0
2023/10/10 12:30:00, 0.2,22.9
2023/10/10 12:40:00, 0.1,23.4
2023/10/10 12:50:00, 0.2,24.1
2023/10/10 13:00:00, 0.2,24.2
2023/10/10 13:10:00, 0.2,21.2
2023/10/10 13:20:00, 0.3,21.3
2023/10/10 13:30:00, 0.3,23.1
2023/10/10 13:40:00, 0.2,21.0
2023/10/10 13:50:00, 0.3,21.7
2023/10/10 14:00:00, 0.3,20.2
2023/10/10 14:10:00, 0.3,19.8
2023/10/10 14:20:00, 0.3,19.3
2023/10/10 14:30:00, 0.2,21.1
2023/10/10 14:40:00, 0.3,22.2
2023/10/10 14:50:00, 0.4,20.3
2023/10/10 15:00:00, 0.5,20.5
2023/10/10 15:10:00, 0.6,19.8
2023/10/10 15:20:00, 0.5,19.8
2023/10/10 15:30:00, 0.7,19.1
2023/10/10 15:40:00, 1.1,18.4
2023/10/10 15:50:00, 1.2,18.5
2023/10/10 16:00:00, 0.9,18.3
2023/10/10 16:10:00, 2.1,18.3
2023/10/10 16:20:00, 0.5,18.3
2023/10/10 16:30:00, 0.2,18.0
2023/10/10 16:40:00, 0.2,18.2
2023/10/10 16:50:00, 0.2,18.1
2023/10/10 17:00:00, 0.2,17.9
2023/10/10 17:10:00, 0.2,17.7
2023/10/10 17:20:00, 0.2,17.6
2023/10/10 17:30:00, 0.2,17.2
2023/10/10 17:40:00, 0.2,17.5
2023/10/10 17:50:00, 0.2,17.3
2023/10/10 18:00:00, 0.2,17.0
2023/10/10 18:10:00, 0.2,17.2
2023/10/10 18:20:00, 0.2,17.3
2023/10/10 18:30:00, 0.2,17.4
2023/10/10 18:40:00, 0.2,17.4
2023/10/10 18:50:00, 0.3,17.3
2023/10/10 19:00:00, 0.3,17.6
2023/10/10 19:10:00, 0.3,17.4
2023/10/10 19:20:00, 0.3,17.3
2023/10/10 19:30:00, 0.2,17.3
2023/10/10 19:40:00, 0.2,17.3
2023/10/10 19:50:00, 0.2,17.3
2023/10/10 20:00:00, 0.2,17.2
2023/10/10 20:10:00, 0.2,16.8
2023/10/10 20:20:00, 0.3,17.2
2023/10/10 20:30:00, 0.2,17.1
2023/10/10 20:40:00, 0.2,17.3
2023/10/10 20:50:00, 0.2,17.1
2023/10/10 21:00:00, 0.2,17.3
2023/10/10 21:10:00, 0.2,16.9
2023/10/10 21:20:00, 0.2,17.0
2023/10/10 21:30:00, 0.2,16.8
2023/10/10 21:40:00, 0.2,16.8
2023/10/10 21:50:00, 0.2,17.2
2023/10/10 22:00:00, 0.2,16.8
2023/10/10 22:10:00, 0.2,16.7
2023/10/10 22:20:00, 0.2,16.8
2023/10/10 22:30:00, 0.2,17.3
2023/10/10 22:40:00, 0.2,16.8
2023/10/10 22:50:00, 0.2,16.7
2023/10/10 23:00:00, 0.2,16.5
2023/10/10 23:10:00, 0.1,16.4
2023/10/10 23:20:00, 0.1,16.3
2023/10/10 23:30:00, 0.2,16.4
2023/10/10 23:40:00, 0.2,16.2
2023/10/10 23:50:00, 0.2,16.7
